This is the latest recevied weather packets stored in our database for station/object WP4NYS-13. If no packets are shown the sender has not sent any weather packets the latest 10 day(s).
| Time | Temp. | Humidity | Pressure | Rain* | Wind** | Luminosity | Snow |
|---|---|---|---|---|---|---|---|
| 1777914084 | 27.78° C | 33% | 1018.3 hPa | 0 mm | - | - | - |
| 1777913781 | 28.33° C | 32% | 1018.5 hPa | 0 mm | - | - | - |
| 1777913477 | 28.33° C | 34% | 1018.4 hPa | 0 mm | - | - | - |
| 1777913173 | 27.78° C | 34% | 1018.7 hPa | 0 mm | - | - | - |
| 1777912869 | 27.78° C | 34% | 1018.3 hPa | 0 mm | - | - | - |
| 1777912566 | 27.78° C | 33% | 1018.8 hPa | 0 mm | - | - | - |
| 1777912263 | 27.22° C | 35% | 1018.7 hPa | 0 mm | - | - | - |
| 1777911958 | 27.78° C | 33% | 1018.8 hPa | 0 mm | - | - | - |
| 1777911655 | 27.78° C | 35% | 1018.7 hPa | 0 mm | - | - | - |
| 1777911351 | 26.67° C | 36% | 1018.9 hPa | 0 mm | - | - | - |
| 1777911049 | 27.22° C | 36% | 1018.9 hPa | 0 mm | - | - | - |
| 1777910746 | 27.22° C | 37% | 1019 hPa | 0 mm | - | - | - |
| 1777910443 | 27.22° C | 34% | 1019.3 hPa | 0 mm | - | - | - |
| 1777910139 | 27.22° C | 35% | 1018.9 hPa | 0 mm | - | - | - |
| 1777909837 | 27.22° C | 36% | 1019.3 hPa | 0 mm | - | - | - |
| 1777909533 | 26.67° C | 36% | 1019.4 hPa | 0 mm | - | - | - |
| 1777909231 | 26.11° C | 36% | 1019.2 hPa | 0 mm | - | - | - |
| 1777908929 | 26.11° C | 37% | 1019.4 hPa | 0 mm | - | - | - |
| 1777908627 | 26.11° C | 37% | 1019.3 hPa | 0 mm | - | - | - |
| 1777908323 | 26.11° C | 39% | 1019.3 hPa | 0 mm | - | - | - |
| 1777908020 | 26.11° C | 38% | 1019.4 hPa | 0 mm | - | - | - |
| 1777907715 | 26.11° C | 37% | 1019.2 hPa | 0 mm | - | - | - |
| 1777907410 | 25.56° C | 38% | 1019.4 hPa | 0 mm | - | - | - |
| 1777907107 | 25.56° C | 39% | 1019.2 hPa | 0 mm | - | - | - |
| 1777906805 | 25.56° C | 38% | 1019.1 hPa | 0 mm | - | - | - |
* Rain latest hour (hover to see other rain measurements)
** Current wind speed in m/s (hover to see current wind gust speed)